Location: Killam
(52.7910°N, 111.8608°W)
Time: 11:53:01
(UTC+00:00)

METEOR M2 - Pass Details

Date: 23 March 2026
Orbit: 817 x 824 km, 98.5° (Epoch: 14 April)

Event Time Altitude Azimuth Distance (km) Brightness Sun altitude
Rises 11:59:16 0° 15° (NNE) 3,375 ? -13.1°
Reaches altitude 10° 12:01:38 10° 17° (NNE) 2,438 ? -12.8°
Maximum altitude 12:07:03 81° 104° (ESE) 841 ? -12.0°
Drops below altitude 10° 12:12:26 10° 193° (SSW) 2,418 ? -11.2°
Sets 12:14:46 0° 195° (SSW) 3,346 ? -10.9°
